Location: Aiyekoto
(8.4333°N, 4.3667°E)
Time: 23:15:45
(UTC+00:00)

ATLAS 5 CENTAUR R/B - Pass Details

Date: 06 October 2020
Orbit: 527 x 1131 km, 63.4° (Epoch: 28 October)

Event Time Altitude Azimuth Distance (km) Brightness Sun altitude
Rises 18:21:03 0° 189° (S) 2,764 5.1 -13.3°
Reaches altitude 10° 18:23:27 10° 180° (S) 1,817 4.0 -13.9°
Maximum altitude 18:27:07 35° 113° (ESE) 862 1.8 -14.8°
Enters shadow 18:28:28 27° 72° (ENE) 1,036 2.1 -15.1°
